TimeCDT,TemperatureF,Dew PointF,Humidity,Sea Level PressureIn,VisibilityMPH,Wind Direction,Wind SpeedMPH,Gust SpeedMPH,PrecipitationIn,Events,Conditions,WindDirDegrees,DateUTC
12:15 AM,26.6,23.0,86,30.18,10.0,ENE,6.9,-,N/A,,Overcast,70,2012-11-02 05:15:00
12:35 AM,26.6,23.0,86,30.17,10.0,ENE,9.2,-,N/A,,Overcast,60,2012-11-02 05:35:00
12:55 AM,26.6,23.0,86,30.16,10.0,NE,6.9,-,N/A,,Overcast,50,2012-11-02 05:55:00
1:15 AM,26.6,23.0,86,30.16,10.0,NE,8.1,-,N/A,,Overcast,40,2012-11-02 06:15:00
1:35 AM,26.6,23.0,86,30.16,10.0,North,5.8,-,N/A,,Overcast,360,2012-11-02 06:35:00
1:55 AM,26.6,23.0,86,30.16,10.0,NNE,3.5,-,N/A,,Overcast,20,2012-11-02 06:55:00
2:15 AM,26.6,24.8,93,30.16,10.0,NE,6.9,-,N/A,,Overcast,50,2012-11-02 07:15:00
2:35 AM,28.4,24.8,86,30.16,10.0,ENE,10.4,-,N/A,,Overcast,70,2012-11-02 07:35:00
2:55 AM,26.6,23.0,86,30.17,10.0,ENE,6.9,-,N/A,,Overcast,60,2012-11-02 07:55:00
3:15 AM,26.6,23.0,86,30.18,10.0,East,9.2,-,N/A,,Overcast,90,2012-11-02 08:15:00
3:35 AM,26.6,23.0,86,30.17,10.0,ENE,8.1,-,N/A,,Overcast,70,2012-11-02 08:35:00
3:55 AM,26.6,23.0,86,30.17,10.0,ENE,5.8,-,N/A,,Overcast,70,2012-11-02 08:55:00
4:15 AM,26.6,23.0,86,30.17,10.0,NE,6.9,-,N/A,,Overcast,50,2012-11-02 09:15:00
4:35 AM,26.6,23.0,86,30.17,10.0,East,9.2,-,N/A,,Overcast,80,2012-11-02 09:35:00
4:55 AM,26.6,23.0,86,30.17,10.0,ENE,5.8,-,N/A,,Overcast,60,2012-11-02 09:55:00
5:15 AM,26.6,23.0,86,30.17,10.0,East,6.9,-,N/A,,Overcast,80,2012-11-02 10:15:00
5:35 AM,26.6,23.0,86,30.17,10.0,ENE,4.6,-,N/A,,Overcast,70,2012-11-02 10:35:00
5:55 AM,26.6,23.0,86,30.17,10.0,East,4.6,-,N/A,,Overcast,80,2012-11-02 10:55:00
6:15 AM,26.6,24.8,93,30.17,10.0,ENE,5.8,-,N/A,,Overcast,60,2012-11-02 11:15:00
6:35 AM,26.6,24.8,93,30.17,10.0,East,6.9,-,N/A,,Overcast,90,2012-11-02 11:35:00
6:55 AM,26.6,24.8,93,30.17,10.0,East,6.9,-,N/A,,Overcast,80,2012-11-02 11:55:00
7:15 AM,28.4,24.8,86,30.17,10.0,East,5.8,-,N/A,,Overcast,80,2012-11-02 12:15:00
7:35 AM,28.4,24.8,86,30.18,10.0,East,4.6,-,N/A,,Overcast,80,2012-11-02 12:35:00
7:55 AM,28.4,24.8,86,30.18,10.0,East,5.8,-,N/A,,Overcast,80,2012-11-02 12:55:00
8:15 AM,28.4,24.8,86,30.18,10.0,East,4.6,-,N/A,,Overcast,80,2012-11-02 13:15:00
8:35 AM,28.4,24.8,86,30.18,10.0,ENE,4.6,-,N/A,,Overcast,70,2012-11-02 13:35:00
9:15 AM,28.4,24.8,86,30.19,10.0,NE,5.8,-,N/A,,Overcast,40,2012-11-02 14:15:00
9:35 AM,28.4,24.8,86,30.19,10.0,NE,4.6,-,N/A,,Overcast,50,2012-11-02 14:35:00
9:55 AM,28.4,26.6,93,30.20,10.0,NE,3.5,-,N/A,,Overcast,50,2012-11-02 14:55:00
10:15 AM,28.4,24.8,86,30.20,10.0,NNE,3.5,-,N/A,,Overcast,30,2012-11-02 15:15:00
10:35 AM,28.4,26.6,93,30.20,10.0,NE,3.5,-,N/A,,Overcast,40,2012-11-02 15:35:00
10:55 AM,28.4,26.6,93,30.20,10.0,ENE,3.5,-,N/A,,Overcast,60,2012-11-02 15:55:00
11:15 AM,30.2,26.6,86,30.19,10.0,SE,3.5,-,N/A,,Overcast,130,2012-11-02 16:15:00
11:35 AM,30.2,26.6,86,30.19,10.0,ESE,3.5,-,N/A,,Overcast,120,2012-11-02 16:35:00
11:55 AM,30.2,26.6,86,30.19,10.0,SE,4.6,-,N/A,,Overcast,140,2012-11-02 16:55:00
12:15 PM,32.0,26.6,80,30.19,10.0,ESE,8.1,-,N/A,,Overcast,110,2012-11-02 17:15:00
12:35 PM,32.0,26.6,80,30.19,10.0,SE,5.8,-,N/A,,Overcast,130,2012-11-02 17:35:00
12:55 PM,32.0,26.6,80,30.19,10.0,ESE,5.8,-,N/A,,Overcast,110,2012-11-02 17:55:00
1:15 PM,32.0,26.6,80,30.19,10.0,SE,6.9,-,N/A,,Overcast,130,2012-11-02 18:15:00
1:35 PM,32.0,26.6,80,30.18,10.0,SE,6.9,-,N/A,,Overcast,140,2012-11-02 18:35:00
1:55 PM,32.0,26.6,80,30.18,5.0,SE,4.6,-,N/A,Snow,Light Snow,130,2012-11-02 18:55:00
2:15 PM,30.2,26.6,86,30.17,0.8,ESE,4.6,-,N/A,Snow,Light Snow,120,2012-11-02 19:15:00
2:35 PM,28.4,28.4,100,30.17,0.8,SE,3.5,-,N/A,Snow,Light Snow,130,2012-11-02 19:35:00
2:55 PM,28.4,28.4,100,30.17,0.5,SE,3.5,-,N/A,Snow,Snow,140,2012-11-02 19:55:00
3:15 PM,28.4,28.4,100,30.17,0.5,Calm,Calm,-,N/A,Snow,Snow,0,2012-11-02 20:15:00
3:35 PM,28.4,28.4,100,30.17,1.0,Calm,Calm,-,N/A,Snow,Light Snow,0,2012-11-02 20:35:00
3:55 PM,28.4,28.4,100,30.17,1.0,Calm,Calm,-,N/A,Snow,Light Snow,0,2012-11-02 20:55:00
4:15 PM,28.4,28.4,100,30.17,0.2,Calm,Calm,-,N/A,Snow,Heavy Snow,0,2012-11-02 21:15:00
4:35 PM,28.4,28.4,100,30.17,0.2,Calm,Calm,-,N/A,Snow,Heavy Snow,0,2012-11-02 21:35:00
4:55 PM,28.4,28.4,100,30.17,0.5,Calm,Calm,-,N/A,Snow,Snow,0,2012-11-02 21:55:00
5:15 PM,28.4,28.4,100,30.17,0.2,NE,3.5,-,N/A,Snow,Heavy Snow,50,2012-11-02 22:15:00
5:35 PM,28.4,28.4,100,30.17,0.2,Calm,Calm,-,N/A,Snow,Heavy Snow,0,2012-11-02 22:35:00
5:55 PM,28.4,28.4,100,30.17,0.2,Calm,Calm,-,N/A,Snow,Heavy Snow,0,2012-11-02 22:55:00
6:15 PM,28.4,28.4,100,30.17,0.5,Calm,Calm,-,N/A,Snow,Snow,0,2012-11-02 23:15:00
6:35 PM,28.4,28.4,100,30.17,0.5,NNE,4.6,-,N/A,Snow,Snow,30,2012-11-02 23:35:00
6:55 PM,28.4,28.4,100,30.18,0.8,Calm,Calm,-,N/A,Snow,Light Snow,0,2012-11-02 23:55:00
7:15 PM,28.4,28.4,100,30.18,1.2,NE,4.6,-,N/A,Snow,Light Snow,40,2012-11-03 00:15:00
7:35 PM,28.4,28.4,100,30.18,3.0,NE,3.5,-,N/A,Snow,Light Snow,40,2012-11-03 00:35:00
7:55 PM,28.4,28.4,100,30.18,2.0,Calm,Calm,-,N/A,Snow,Light Snow,0,2012-11-03 00:55:00
8:15 PM,28.4,28.4,100,30.18,2.0,North,3.5,-,N/A,Snow,Light Snow,360,2012-11-03 01:15:00
8:35 PM,28.4,28.4,100,30.18,1.5,North,3.5,-,N/A,Snow,Light Snow,360,2012-11-03 01:35:00
8:55 PM,28.4,28.4,100,30.18,1.2,NNE,4.6,-,N/A,Snow,Light Snow,30,2012-11-03 01:55:00
9:15 PM,28.4,28.4,100,30.18,1.2,NE,4.6,-,N/A,Snow,Light Snow,40,2012-11-03 02:15:00
9:35 PM,28.4,28.4,100,30.18,1.8,NNE,4.6,-,N/A,Snow,Light Snow,20,2012-11-03 02:35:00
9:55 PM,28.4,28.4,100,30.18,1.8,North,4.6,-,N/A,Snow,Light Snow,10,2012-11-03 02:55:00
10:15 PM,28.4,28.4,100,30.19,4.0,NNE,3.5,-,N/A,Snow,Light Snow,20,2012-11-03 03:15:00
10:35 PM,28.4,28.4,100,30.19,3.0,NNE,3.5,-,N/A,Snow,Light Snow,20,2012-11-03 03:35:00
10:55 PM,28.4,28.4,100,30.19,5.0,NNE,3.5,-,N/A,Snow,Light Snow,30,2012-11-03 03:55:00
11:15 PM,28.4,28.4,100,30.20,7.0,NE,3.5,-,N/A,Rain,Freezing Rain,40,2012-11-03 04:15:00
11:35 PM,28.4,28.4,100,30.20,7.0,NE,3.5,-,N/A,Rain,Freezing Rain,50,2012-11-03 04:35:00
11:55 PM,28.4,28.4,100,30.19,7.0,NE,3.5,-,N/A,Rain,Freezing Rain,50,2012-11-03 04:55:00